Location: Feydey
(46.3431°N, 7.0106°E)
Time: 17:54:26
(UTC+00:00)

GEOS 3 Rocket - Visible Passes

Search period start: 21 October 2021 00:00
Search period end: 31 October 2021 00:00
Orbit: 786 x 833 km, 115.0° (Epoch: 20 October)

Date Brightness Start Highest point End Pass type
(mag) Time Alt. Az. Time Alt. Az. Time Alt. Az.
21 Oct 5.0 04:07:06 10° NE 04:11:50 36° ESE 04:16:29 10° S visible
22 Oct 5.9 03:43:52 10° ENE 03:47:43 21° ESE 03:51:32 10° SSE visible
22 Oct 3.6 05:21:02 10° NE 05:26:12 76° NW 05:31:16 10° SW visible
23 Oct 6.4 03:21:49 10° E 03:23:30 11° ESE 03:25:11 10° SE visible
23 Oct 4.0 04:57:10 10° NE 05:02:19 67° SE 05:07:22 10° SSW visible
24 Oct 5.0 04:33:31 10° NE 04:38:20 39° ESE 04:43:05 10° S visible
25 Oct 5.9 04:10:11 10° ENE 04:14:14 23° ESE 04:18:14 10° SSE visible
26 Oct 6.5 03:47:46 10° E 03:50:02 13° ESE 03:52:17 10° SE visible
26 Oct 3.9 05:23:38 10° NE 05:28:47 73° SE 05:33:52 10° SSW visible
27 Oct 4.9 04:59:56 10° NE 05:04:49 43° ESE 05:09:38 10° SSW visible
28 Oct 5.9 04:36:32 10° ENE 04:40:45 25° ESE 04:44:54 10° S visible
29 Oct 6.5 04:13:53 10° E 04:16:34 14° ESE 04:19:13 10° SE visible
30 Oct 4.8 05:26:21 10° NE 05:31:19 47° ESE 05:36:12 10° SSW visible
